Погода в Лесном городке

Россия / Московская область     55°38′10″N   37°12′45″E
темп.,
°C
ветер,
м/с
пор.,
м/с
влажн.,
%
обл.,
%
осадки,
мм/ч
давл.,
гПа
погр.,
м
20 июня, вс
вс2000:00+19зюз25750 0.0 1023124
03:00+18юз23813 0.0 102473
06:00+19юз23760 0.0 1023131
09:00+24ююз23570 0.0 1023657
12:00+28ююз23400 0.0 10221480
15:00+30ююз33350 0.0 10211879
18:00+29ююз33400 0.0 10201869
21:00+24ююз3667100 0.0 1021188
21 июня, пн
пн2100:00+21ююз267691 0.0 1021177
03:00+19юз2375100 0.0 1022102
06:00+20ююз2373100 0.0 1022131
09:00+24ю2359100 0.0 1022571
12:00+27ююв334448 0.0 10211342
15:00+29ююв44386 0.0 10201710
18:00+28ююв3345100 0.0 10201340
21:00+24ююв366842 0.0 1021226
22 июня, вт
вт2200:00+21ю2479100 0.0 1021108
03:00+20ююв238767 0.0 102182
06:00+21ююв248090 0.0 1021174
09:00+26ююв245955 0.0 1021624
12:00+29ююв3445100 0.0 10211384
15:00+31ю3435100 0.0 10201871
18:00+31ююв44383 0.0 10201595
21:00+26ю26641 0.0 1020211
23 июня, ср
ср2300:00+23ю26770 0.0 1021171
03:00+21ююз23865 0.0 102280
06:00+22ю12775 0.0 1021108
09:00+27ю23540 0.0 1021615
12:00+31ююв23372 0.0 10211491
15:00+33ююв333137 0.0 10202014
18:00+32ююв32365 0.0 10201375
21:00+27ююв37605 0.0 1020288
24 июня, чт
чт2400:00+23юз25665 0.0 1021130
03:00+22зюз22735 0.0 102149
06:00+23юз12710 0.0 1021106
09:00+28ююз11512 0.0 1021538
12:00+32ю21350 0.0 10201567
15:00+34ююз22275 0.0 10192312
18:00+33ююз22300 0.0 10192241
21:00+27ю37590 0.0 1018228